ELY199 MPTO-MROC

Flight info

Callsign ELY199
Flight time 0h 59m
Altitude 34000
Route PUDOS DCT ISEBA CUARE3I
Aircraft B772/H-SDE2E3FGHIJ1J4J5LM1OP2RVWXYZ/LB1D1

Departure

Time 2026-05-08 08:39
Airport Tocumen International Airport (MPTO)

Arrival

Time 2026-05-08 09:38
Airport Juan Santamaría International Airport (MROC)
Time Latitude Longitude Altitude Speed Heading
2026-05-08 08:15 9.07039 -79.38337 35 ft 0 kts 168°
2026-05-08 08:27 9.07039 -79.38338 35 ft 1 kts 168°
2026-05-08 08:27 9.07063 -79.38342 35 ft 4 kts 171°
2026-05-08 08:28 9.07081 -79.38345 35 ft 4 kts 173°
2026-05-08 08:28 9.07109 -79.38348 34 ft 4 kts 177°
2026-05-08 08:28 9.07135 -79.38348 35 ft 4 kts 182°
2026-05-08 08:28 9.07162 -79.38346 32 ft 4 kts 191°
2026-05-08 08:29 9.07187 -79.38339 35 ft 2 kts 210°
2026-05-08 08:29 9.07189 -79.38338 35 ft 0 kts 211°
2026-05-08 08:31 9.07166 -79.38352 34 ft 10 kts 211°
2026-05-08 08:31 9.07080 -79.38399 35 ft 16 kts 207°
2026-05-08 08:32 9.06982 -79.38451 35 ft 16 kts 208°
2026-05-08 08:32 9.06897 -79.38418 35 ft 16 kts 116°
2026-05-08 08:32 9.06861 -79.38313 34 ft 16 kts 105°
2026-05-08 08:32 9.06776 -79.38294 34 ft 16 kts 211°
2026-05-08 08:33 9.06679 -79.38347 34 ft 16 kts 208°
2026-05-08 08:33 9.06582 -79.38400 34 ft 16 kts 208°
2026-05-08 08:33 9.06485 -79.38453 34 ft 16 kts 208°
2026-05-08 08:33 9.06389 -79.38508 34 ft 16 kts 210°
2026-05-08 08:34 9.06294 -79.38564 34 ft 16 kts 210°
2026-05-08 08:34 9.06199 -79.38621 34 ft 16 kts 210°
2026-05-08 08:34 9.06103 -79.38676 35 ft 16 kts 210°
2026-05-08 08:34 9.06006 -79.38728 35 ft 16 kts 210°
2026-05-08 08:35 9.05911 -79.38785 34 ft 16 kts 210°
2026-05-08 08:35 9.05817 -79.38841 34 ft 16 kts 210°
2026-05-08 08:35 9.05722 -79.38897 34 ft 16 kts 210°
2026-05-08 08:35 9.05626 -79.38952 34 ft 16 kts 210°
2026-05-08 08:36 9.05530 -79.39007 34 ft 16 kts 210°
2026-05-08 08:36 9.05434 -79.39062 34 ft 16 kts 209°
2026-05-08 08:36 9.05338 -79.39116 34 ft 16 kts 209°
2026-05-08 08:36 9.05242 -79.39171 34 ft 16 kts 209°
2026-05-08 08:37 9.05146 -79.39226 35 ft 16 kts 209°
2026-05-08 08:37 9.05050 -79.39281 35 ft 16 kts 209°
2026-05-08 08:37 9.04955 -79.39335 33 ft 16 kts 210°
2026-05-08 08:37 9.04856 -79.39380 35 ft 16 kts 171°
2026-05-08 08:38 9.04790 -79.39294 36 ft 16 kts 117°
2026-05-08 08:38 9.04846 -79.39213 36 ft 16 kts 28°
2026-05-08 08:38 9.05088 -79.39076 36 ft 79 kts 29°
2026-05-08 08:38 9.05800 -79.38672 36 ft 154 kts 29°
2026-05-08 08:39 9.06809 -79.38112 670 ft 167 kts 28°
2026-05-08 08:39 9.07807 -79.37429 1462 ft 174 kts 49°
2026-05-08 08:39 9.08385 -79.36344 2370 ft 181 kts 68°
2026-05-08 08:39 9.08533 -79.34989 2664 ft 210 kts 94°
2026-05-08 08:40 9.08290 -79.33478 3104 ft 223 kts 96°
2026-05-08 08:40 9.08042 -79.31861 3489 ft 246 kts 96°
2026-05-08 08:40 9.07776 -79.30121 4139 ft 254 kts 96°
2026-05-08 08:40 9.07503 -79.28332 4921 ft 259 kts 96°
2026-05-08 08:41 9.07231 -79.26524 5744 ft 261 kts 96°
2026-05-08 08:41 9.06959 -79.24702 6519 ft 264 kts 96°
2026-05-08 08:41 9.06686 -79.22862 6951 ft 266 kts 96°
2026-05-08 08:41 9.06283 -79.21037 6982 ft 269 kts 112°
2026-05-08 08:42 9.05100 -79.19562 7199 ft 277 kts 143°
2026-05-08 08:42 9.03278 -79.18793 7561 ft 294 kts 172°
2026-05-08 08:42 9.01244 -79.19023 8324 ft 297 kts 199°
2026-05-08 08:42 8.99340 -79.19865 8915 ft 303 kts 204°
2026-05-08 08:43 8.97421 -79.20786 9604 ft 307 kts 204°
2026-05-08 08:43 8.95486 -79.21720 10290 ft 310 kts 203°
2026-05-08 08:43 8.93519 -79.22663 10995 ft 315 kts 203°
2026-05-08 08:43 8.91527 -79.23608 11797 ft 318 kts 203°
2026-05-08 08:44 8.89509 -79.24558 12700 ft 322 kts 202°
2026-05-08 08:44 8.87464 -79.25515 13542 ft 327 kts 202°
2026-05-08 08:44 8.85381 -79.26486 14338 ft 332 kts 202°
2026-05-08 08:44 8.83269 -79.27470 15155 ft 338 kts 202°
2026-05-08 08:45 8.81059 -79.28498 15492 ft 362 kts 202°
2026-05-08 08:45 8.78725 -79.29584 16127 ft 374 kts 203°
2026-05-08 08:45 8.76339 -79.30697 16938 ft 381 kts 203°
2026-05-08 08:45 8.73924 -79.31825 17862 ft 384 kts 203°
2026-05-08 08:46 8.71493 -79.32960 18713 ft 387 kts 203°
2026-05-08 08:46 8.69032 -79.34107 19439 ft 393 kts 203°
2026-05-08 08:46 8.66532 -79.35272 20147 ft 397 kts 204°
2026-05-08 08:46 8.64192 -79.36778 20660 ft 408 kts 223°
2026-05-08 08:47 8.62499 -79.39100 21301 ft 417 kts 245°
2026-05-08 08:47 8.61688 -79.41912 22068 ft 420 kts 264°
2026-05-08 08:47 8.61782 -79.44854 22812 ft 422 kts 284°
2026-05-08 08:47 8.62576 -79.47706 23340 ft 425 kts 289°
2026-05-08 08:48 8.63458 -79.50592 23851 ft 433 kts 289°
2026-05-08 08:48 8.64358 -79.53510 24539 ft 435 kts 289°
2026-05-08 08:48 8.65253 -79.56433 25297 ft 436 kts 289°
2026-05-08 08:48 8.66130 -79.59336 25982 ft 439 kts 288°
2026-05-08 08:49 8.67015 -79.62302 26623 ft 443 kts 288°
2026-05-08 08:49 8.67901 -79.65298 27245 ft 447 kts 288°
2026-05-08 08:49 8.68790 -79.68326 27881 ft 451 kts 287°
2026-05-08 08:49 8.69683 -79.71379 28529 ft 454 kts 287°
2026-05-08 08:50 8.70581 -79.74451 29153 ft 458 kts 287°
2026-05-08 08:50 8.71484 -79.77547 29734 ft 461 kts 287°
2026-05-08 08:50 8.72395 -79.80671 30235 ft 465 kts 287°
2026-05-08 08:50 8.73312 -79.83814 30721 ft 468 kts 287°
2026-05-08 08:51 8.74235 -79.86977 31218 ft 469 kts 287°
2026-05-08 08:51 8.75160 -79.90148 31698 ft 472 kts 287°
2026-05-08 08:51 8.76089 -79.93336 32096 ft 475 kts 286°
2026-05-08 08:51 8.77027 -79.96551 32522 ft 478 kts 286°
2026-05-08 08:52 8.77969 -79.99782 32880 ft 482 kts 286°
2026-05-08 08:52 8.78918 -80.03043 33290 ft 484 kts 286°
2026-05-08 08:52 8.79868 -80.06304 33775 ft 483 kts 285°
2026-05-08 08:52 8.80822 -80.09579 33890 ft 487 kts 285°
2026-05-08 08:53 8.82729 -80.16127 33891 ft 484 kts 285°
2026-05-08 08:53 8.84622 -80.22636 33894 ft 481 kts 285°
2026-05-08 08:54 8.86508 -80.29124 33893 ft 481 kts 285°
2026-05-08 08:54 8.88391 -80.35608 33897 ft 481 kts 285°
2026-05-08 08:55 8.90262 -80.42057 33892 ft 481 kts 285°
2026-05-08 08:55 8.92147 -80.48556 33899 ft 482 kts 285°
2026-05-08 08:56 8.94033 -80.55066 33895 ft 482 kts 285°
2026-05-08 08:56 8.94967 -80.58288 33884 ft 471 kts 285°
2026-05-08 08:56 8.95874 -80.61416 33879 ft 457 kts 285°
2026-05-08 08:57 8.97645 -80.67539 33883 ft 454 kts 285°
2026-05-08 08:57 8.99429 -80.73710 33912 ft 460 kts 286°
2026-05-08 08:58 9.01230 -80.79943 33895 ft 463 kts 286°
2026-05-08 08:58 9.03032 -80.86182 33888 ft 461 kts 285°
2026-05-08 08:59 9.04822 -80.92384 33886 ft 458 kts 286°
2026-05-08 08:59 9.06600 -80.98552 33891 ft 455 kts 286°
2026-05-08 09:00 9.08371 -81.04693 33893 ft 454 kts 285°
2026-05-08 09:00 9.10008 -81.10870 33914 ft 455 kts 284°
2026-05-08 09:01 9.11549 -81.17082 33900 ft 456 kts 283°
2026-05-08 09:01 9.13099 -81.23308 33895 ft 457 kts 284°
2026-05-08 09:02 9.14657 -81.29497 33897 ft 457 kts 284°
2026-05-08 09:02 9.16233 -81.35731 33892 ft 457 kts 284°
2026-05-08 09:03 9.17808 -81.41959 33891 ft 456 kts 284°
2026-05-08 09:03 9.19377 -81.48175 33890 ft 456 kts 284°
2026-05-08 09:04 9.20945 -81.54392 33898 ft 456 kts 284°
2026-05-08 09:04 9.22510 -81.60602 33897 ft 455 kts 284°
2026-05-08 09:05 9.24075 -81.66817 33896 ft 455 kts 284°
2026-05-08 09:05 9.25628 -81.72986 33897 ft 455 kts 284°
2026-05-08 09:06 9.27189 -81.79195 33897 ft 455 kts 284°
2026-05-08 09:06 9.28749 -81.85403 33895 ft 455 kts 284°
2026-05-08 09:07 9.30309 -81.91614 33899 ft 455 kts 284°
2026-05-08 09:07 9.31867 -81.97825 33901 ft 455 kts 284°
2026-05-08 09:08 9.33425 -82.04041 33897 ft 455 kts 284°
2026-05-08 09:08 9.34981 -82.10255 33896 ft 455 kts 284°
2026-05-08 09:09 9.36536 -82.16467 33899 ft 455 kts 284°
2026-05-08 09:09 9.38089 -82.22679 33900 ft 455 kts 284°
2026-05-08 09:10 9.39643 -82.28896 33901 ft 456 kts 284°
2026-05-08 09:10 9.41197 -82.35120 33905 ft 456 kts 284°
2026-05-08 09:11 9.42750 -82.41347 33918 ft 456 kts 284°
2026-05-08 09:11 9.44302 -82.47571 33914 ft 456 kts 284°
2026-05-08 09:12 9.45853 -82.53799 33900 ft 456 kts 284°
2026-05-08 09:12 9.47403 -82.60024 33909 ft 456 kts 284°
2026-05-08 09:13 9.48950 -82.66248 33909 ft 455 kts 284°
2026-05-08 09:13 9.50234 -82.71416 33931 ft 455 kts 284°
2026-05-08 09:14 9.51779 -82.77637 33925 ft 455 kts 284°
2026-05-08 09:14 9.53572 -82.84865 33926 ft 455 kts 284°
2026-05-08 09:15 9.55130 -82.91056 33933 ft 448 kts 284°
2026-05-08 09:15 9.55912 -82.94082 33654 ft 443 kts 284°
2026-05-08 09:15 9.56440 -82.96122 33336 ft 442 kts 284°
2026-05-08 09:16 9.57216 -82.99123 32910 ft 439 kts 284°
2026-05-08 09:16 9.57984 -83.02100 32509 ft 436 kts 284°
2026-05-08 09:16 9.58745 -83.05062 32079 ft 433 kts 285°
2026-05-08 09:16 9.59501 -83.08008 31654 ft 431 kts 285°
2026-05-08 09:17 9.60254 -83.10941 31240 ft 429 kts 285°
2026-05-08 09:17 9.61042 -83.13846 30824 ft 427 kts 288°
2026-05-08 09:17 9.61992 -83.16691 30389 ft 426 kts 290°
2026-05-08 09:17 9.63004 -83.19460 29970 ft 425 kts 291°
2026-05-08 09:18 9.64061 -83.22295 29466 ft 423 kts 291°
2026-05-08 09:18 9.65074 -83.25041 29004 ft 420 kts 291°
2026-05-08 09:18 9.66082 -83.27813 28531 ft 418 kts 291°
2026-05-08 09:18 9.67073 -83.30574 28083 ft 416 kts 291°
2026-05-08 09:19 9.68052 -83.33322 27662 ft 414 kts 291°
2026-05-08 09:19 9.69022 -83.36057 27213 ft 412 kts 291°
2026-05-08 09:19 9.69987 -83.38780 26784 ft 410 kts 291°
2026-05-08 09:19 9.70949 -83.41495 26341 ft 408 kts 291°
2026-05-08 09:20 9.71906 -83.44198 25902 ft 407 kts 291°
2026-05-08 09:20 9.72862 -83.46894 25493 ft 406 kts 291°
2026-05-08 09:20 9.73817 -83.49586 25040 ft 406 kts 291°
2026-05-08 09:20 9.74746 -83.52277 24588 ft 402 kts 287°
2026-05-08 09:21 9.75129 -83.55072 24152 ft 400 kts 266°
2026-05-08 09:21 9.74871 -83.57861 23759 ft 397 kts 264°
2026-05-08 09:22 9.73589 -83.74508 21063 ft 391 kts 266°
2026-05-08 09:23 9.73393 -83.77256 20620 ft 390 kts 265°
2026-05-08 09:23 9.73196 -83.79989 20193 ft 388 kts 265°
2026-05-08 09:23 9.73000 -83.82714 19776 ft 386 kts 265°
2026-05-08 09:23 9.72808 -83.85375 19314 ft 371 kts 265°
2026-05-08 09:24 9.72614 -83.87927 18917 ft 356 kts 265°
2026-05-08 09:24 9.72422 -83.90386 18514 ft 343 kts 265°
2026-05-08 09:24 9.72239 -83.92754 18083 ft 332 kts 265°
2026-05-08 09:24 9.72060 -83.95065 17670 ft 326 kts 265°
2026-05-08 09:25 9.71884 -83.97350 17291 ft 328 kts 265°
2026-05-08 09:25 9.71702 -83.99707 16933 ft 342 kts 265°
2026-05-08 09:25 9.71516 -84.02113 16535 ft 340 kts 265°
2026-05-08 09:25 9.71333 -84.04462 16134 ft 328 kts 265°
2026-05-08 09:26 9.71157 -84.06736 15725 ft 319 kts 265°
2026-05-08 09:26 9.70984 -84.08968 15364 ft 318 kts 266°
2026-05-08 09:26 9.70808 -84.11243 14997 ft 330 kts 265°
2026-05-08 09:26 9.70625 -84.13602 14603 ft 337 kts 266°
2026-05-08 09:27 9.70443 -84.15950 14196 ft 330 kts 266°
2026-05-08 09:27 9.70264 -84.18231 13796 ft 319 kts 266°
2026-05-08 09:27 9.70092 -84.20442 13367 ft 311 kts 266°
2026-05-08 09:27 9.69972 -84.22619 12944 ft 310 kts 274°
2026-05-08 09:28 9.70484 -84.24709 12401 ft 305 kts 296°
2026-05-08 09:28 9.71365 -84.26627 12066 ft 292 kts 297°
2026-05-08 09:28 9.72196 -84.28442 11843 ft 287 kts 297°
2026-05-08 09:28 9.73040 -84.30309 11522 ft 299 kts 296°
2026-05-08 09:29 9.73919 -84.32276 11163 ft 310 kts 295°
2026-05-08 09:29 9.74792 -84.34248 10798 ft 302 kts 295°
2026-05-08 09:29 9.75627 -84.36147 10506 ft 286 kts 295°
2026-05-08 09:29 9.76406 -84.37922 10345 ft 266 kts 295°
2026-05-08 09:30 9.77134 -84.39582 10208 ft 248 kts 295°
2026-05-08 09:30 9.77815 -84.41137 10108 ft 240 kts 294°
2026-05-08 09:30 9.78511 -84.42721 10052 ft 251 kts 294°
2026-05-08 09:30 9.79412 -84.44242 9913 ft 257 kts 318°
2026-05-08 09:31 9.80962 -84.45096 9596 ft 254 kts 347°
2026-05-08 09:31 9.82654 -84.45510 9246 ft 246 kts 348°
2026-05-08 09:31 9.84291 -84.45937 8902 ft 240 kts 347°
2026-05-08 09:31 9.85887 -84.46362 8588 ft 234 kts 347°
2026-05-08 09:32 9.87447 -84.46748 8269 ft 228 kts 356°
2026-05-08 09:32 9.88949 -84.46531 7976 ft 222 kts 29°
2026-05-08 09:32 9.90052 -84.45490 7707 ft 219 kts 61°
2026-05-08 09:32 9.90706 -84.44093 7436 ft 220 kts 67°
2026-05-08 09:33 9.91278 -84.42657 7234 ft 217 kts 69°
2026-05-08 09:33 9.91802 -84.41261 7122 ft 207 kts 69°
2026-05-08 09:33 9.92302 -84.39919 6909 ft 194 kts 69°
2026-05-08 09:33 9.92755 -84.38699 6610 ft 177 kts 69°
2026-05-08 09:34 9.93175 -84.37568 6260 ft 167 kts 69°
2026-05-08 09:34 9.93568 -84.36512 6042 ft 155 kts 69°
2026-05-08 09:34 9.93945 -84.35498 5705 ft 155 kts 69°
2026-05-08 09:34 9.94319 -84.34494 5463 ft 147 kts 69°
2026-05-08 09:35 9.94668 -84.33557 5291 ft 139 kts 68°
2026-05-08 09:35 9.95006 -84.32650 5122 ft 140 kts 69°
2026-05-08 09:35 9.95347 -84.31733 4934 ft 138 kts 69°
2026-05-08 09:35 9.95681 -84.30836 4776 ft 135 kts 69°
2026-05-08 09:36 9.96015 -84.29939 4601 ft 138 kts 68°
2026-05-08 09:36 9.96353 -84.29032 4410 ft 136 kts 68°
2026-05-08 09:36 9.96686 -84.28135 4271 ft 133 kts 68°
2026-05-08 09:36 9.97018 -84.27246 4095 ft 136 kts 69°
2026-05-08 09:37 9.97346 -84.26363 3910 ft 133 kts 68°
2026-05-08 09:37 9.97684 -84.25457 3704 ft 137 kts 69°
2026-05-08 09:37 9.98021 -84.24553 3514 ft 135 kts 69°
2026-05-08 09:37 9.98350 -84.23667 3326 ft 134 kts 69°
2026-05-08 09:38 9.98680 -84.22781 3137 ft 133 kts 68°
2026-05-08 09:38 9.99006 -84.21905 2976 ft 136 kts 69°
2026-05-08 09:38 9.99316 -84.21076 2986 ft 107 kts 69°
2026-05-08 09:38 9.99496 -84.20592 3009 ft 43 kts 69°
2026-05-08 09:39 9.99549 -84.20462 3015 ft 11 kts 56°
2026-05-08 09:39 9.99617 -84.20443 3016 ft 11 kts 338°
2026-05-08 09:39 9.99629 -84.20509 3014 ft 11 kts 248°
2026-05-08 09:39 9.99600 -84.20582 3010 ft 11 kts 250°
2026-05-08 09:40 9.99573 -84.20655 3007 ft 11 kts 250°
2026-05-08 09:40 9.99546 -84.20729 3004 ft 11 kts 250°
2026-05-08 09:40 9.99520 -84.20802 3001 ft 11 kts 250°
2026-05-08 09:40 9.99492 -84.20876 2998 ft 11 kts 248°
2026-05-08 09:41 9.99514 -84.20939 2995 ft 11 kts 339°
2026-05-08 09:41 9.99562 -84.20991 2993 ft 11 kts 266°
2026-05-08 09:41 9.99539 -84.21067 2990 ft 11 kts 253°
2026-05-08 09:41 9.99525 -84.21146 2987 ft 11 kts 259°
2026-05-08 09:42 9.99516 -84.21219 2984 ft 7 kts 304°
2026-05-08 09:42 9.99561 -84.21235 2984 ft 7 kts 341°
2026-05-08 09:42 9.99579 -84.21241 2984 ft 0 kts 341°